Content
SEND FEEDBACK

Daily
Averages
Monthly
Summary
Mexico

SERGIO BUTRÓN CASAS, QUINTANA ROO


Home > North America > Mexico > Quintana Roo
Elevation: 105 feet     Latitude: 18 30N     Longitude: 088 34W

WEATHER
 
SELECT A DAY
Number of Records: 122,150;   Date Range: 1/1/95 - 7/20/14
 
SHARE

PRINT THIS DATA

[ ← Previous Day ]
WEATHER ALMANAC - JANUARY 26, 2014
[ Next Day → ]
[ °C ]   °F
Weather ElementAverageHighLow
Temperature76.2 °F86 °F (2:45 pm)64 °F (5:50 am)
Dewpoint66.9 °F73.4 °F (12:40 pm)53.6 °F (7:00 am)
Humidity71.4 %94 % (5:50 am)42 % (11:50 am)
Barometer29.99 in30.08 in (8:50 am)29.92 in (3:40 pm)
Wind Speed4 mph11.5 mph (4:44 pm)
Weather ElementAverage
Visibility6.5 mi
Wind DirectionE (85.5 °)

Weather ElementTotal
Precipitation---
Cooling Degree Days10 (Base 65)
Growing Degree Days25 (Base 50)
Averaged from 22 records on January 26, 2014
WEATHER CONDITIONS BREAKOUT
WIND DIRECTION BREAKOUT
WEATHER BY HOUR - JANUARY 26, 2014
[ °C ]   °F
Local TimeTemperatureDewpointHumidityBarometerVisibilityWind DirectionWind SpeedGust SpeedPrecipitationEventsConditions
5:50 AM64.0 °F63.0 °F94 %30.05 in5.0 miWNW (290°)2.2 mphScattered Clouds
7:00 AM64.4 °F53.6 °F68 %30.06 in7.0 miCalmScattered Clouds
7:40 AM66.2 °F55.4 °F68 %30.05 in7.0 miCalmScattered Clouds
8:40 AM69.8 °F59.0 °F68 %30.07 in7.0 miCalmClear
8:50 AM73.0 °F65.0 °F70 %30.08 in6.0 miNW (320°)4.5 mphScattered Clouds
9:40 AM73.4 °F64.4 °F73 %30.06 in7.0 miCalmClear
10:40 AM78.8 °F69.8 °F74 %30.05 in7.0 miCalmPartly Cloudy
11:40 AM78.8 °F69.8 °F74 %30.03 in7.0 miCalmPartly Cloudy
11:50 AM84.0 °F64.0 °F42 %30.03 in6.0 miEast (90°)4.5 mphScattered Clouds
12:40 PM82.4 °F73.4 °F74 %29.98 in7.0 miCalmScattered Clouds
1:40 PM82.4 °F73.4 °F74 %29.95 in7.0 miCalmScattered Clouds
2:40 PM80.6 °F71.6 °F74 %29.98 in7.0 miESE (120°)9.2 mphScattered Clouds
2:45 PM86.0 °F66.0 °F42 %29.94 in6.0 miEast (90°)6.7 mphScattered Clouds
3:40 PM80.6 °F71.6 °F74 %29.92 in7.0 miCalmScattered Clouds
4:44 PM80.6 °F71.6 °F74 %29.92 in7.0 miESE (120°)11.5 mphScattered Clouds
5:42 PM77.0 °F68.0 °F74 %29.95 in7.0 miESE (120°)9.2 mphMostly Cloudy
5:45 PM78.0 °F71.0 °F73 %29.96 in6.0 miEast (90°)6.7 mphPartly Cloudy
6:40 PM77.0 °F68.0 °F74 %29.94 in7.0 miESE (120°)9.2 mphMostly Cloudy
7:44 PM77.0 °F68.0 °F74 %29.95 in7.0 miESE (120°)9.2 mphScattered Clouds
8:40 PM75.2 °F66.2 °F73 %29.96 in7.0 miESE (120°)9.2 mphScattered Clouds
8:50 PM76.0 °F70.0 °F75 %29.98 in5.0 miEast (80°)4.5 mph
11:50 PM72.0 °F68.0 °F85 %29.96 in5.0 miSSW (200°)2.2 mphScattered Clouds
Hourly data recorded from MMCM, located miles away from Sergio Butrón Casas, Quintana Roo







STORIES FROM OUR PARTNERS